W6CDO Weather Reports


time (UTC)temp
F
wind
direction
speed
knots
gust
knots
rain 1hr
in
rain 24hr
in
rain mn
in
humidity
%
barometer
mb
20260506233257 70 296 6.1 13.9 0.00 0.00 0.00 61 1017.8
20260506223255 71 281 6.1 13.0 0.00 0.00 0.00 60 1018.4
20260506213255 71 338 5.2 10.4 0.00 0.00 0.00 60 1018.8
20260506203255 71 6 1.7 10.4 0.00 0.00 0.00 58 1019.4
20260506193255 68 238 4.3 8.7 0.00 0.00 0.00 62 1020.1
20260506183253 65 34 3.5 7.8 0.00 0.00 0.00 68 1020.4
20260506173251 65 317 2.6 5.2 0.00 0.00 0.00 68 1020.5
20260506163252 61 97 0.9 4.3 0.00 0.00 0.00 73 1020.7
20260506153253 59 281 1.7 5.2 0.00 0.00 0.00 78 1020.6
20260506150018 57 282 0.9 2.6 0.00 0.00 0.00 84 1020.5
20260506133253 56 296 1.7 3.5 0.00 0.00 0.00 86 1019.9
20260506123249 54 248 0.0 2.6 0.00 0.00 0.00 88 1019.5
20260506113249 55 275 0.0 2.6 0.00 0.01 0.00 87 1019.2
20260506103249 55 303 0.0 1.7 0.00 0.01 0.00 87 1019.0
20260506093247 56 283 0.0 2.6 0.00 0.02 0.00 85 1018.9
20260506083248 57 283 0.0 2.6 0.00 0.04 0.00 85 1018.9
20260506073247 57 285 0.9 4.3 0.00 0.04 0.00 84 1018.7
20260506043244 58 217 3.5 6.1 0.00 0.04 0.04 82 1017.5
20260506033248 58 293 3.5 0.0 0.00 0.04 0.04 80 1016.8
20260506023135 61 268 3.5 11.3 0.00 0.04 0.04 74 1016.1
20260506013134 62 230 4.3 12.2 0.00 0.04 0.04 70 1015.9
20260506003143 62 244 4.3 11.3 0.00 0.04 0.04 71 1015.7